Regional Weather Roundup
Issued by NWS

Home | Current Version | Previous Version | Text Only | Print | Product List | Glossary On
Versions: 1 2 3 4 5 6 7 8 9 10 11 12 13 14 15 16 17 18 19 20 21 22 23 24 25 26 27 28 29 30 31 32 33 34 35 36 37 38 39 40 41 42 43 44 45 46 47 48 49 50
000
ASUS43 KDTX 080610
RWRMI
MICHIGAN HOURLY REGIONAL WEATHER ROUNDUP
NATIONAL WEATHER SERVICE DETROIT/PONTIAC MI
200 AM EDT WED JUL 08 2015

NOTE: "FAIR" INDICATES FEW OR NO CLOUDS BELOW 12,000 FEET WITH NO
SIGNIFICANT WEATHER AND/OR OBSTRUCTION TO VISIBILITY.

MIZ047>049-052>055-059>063-066>070-074>076-081>083-080700-
SOUTHEAST LOWER MICHIGAN

CITY           SKY/WX    TMP DP  RH WIND       PRES   REMARKS
ADRIAN         CLOUDY    61  58  90 N3        30.06S
6HR MIN TEMP:  58; 6HR MAX TEMP:  67;

ALMA           CLEAR     53  50  89 N5        30.11S
ANN ARBOR      CLOUDY    62  54  74 N7        30.06S
BAD AXE        CLOUDY    52  50  95 CALM      30.09R
CARO           MOCLDY    55  53  95 CALM      30.09R
DETROIT CITY   CLOUDY    61  52  72 N8        30.06S
6HR MIN TEMP:  61; 6HR MAX TEMP:  65; 6HR PCP: TRACE;

DETROIT        CLOUDY    63  56  78 N7        30.06S
6HR MIN TEMP:  63; 6HR MAX TEMP:  66;

FLINT          CLOUDY    61  52  72 NE7       30.08S
6HR MIN TEMP:  61; 6HR MAX TEMP:  66;

GROSSE ILE     CLOUDY    63  57  82 NE7       30.04F
HILLSDALE      PTCLDY    56  55  98 N3        30.07S
HOWELL         CLOUDY    58  53  81 N3        30.07S

CITY           SKY/WX    TMP DP  RH WIND       PRES   REMARKS
JACKSON        CLOUDY    57  53  86 CALM      30.07S
6HR MIN TEMP:  53; 6HR MAX TEMP:  64;

LAMBERTVILLE   CLOUDY    63  58  86 CALM      30.06S
6HR MIN TEMP:  63; 6HR MAX TEMP:  67;

LANSING        CLEAR     53  49  86 N6        30.09S
6HR MIN TEMP:  53; 6HR MAX TEMP:  66;

LAPEER         FAIR      52  51  95 CALM      30.08S FOG
MASON          PTCLDY    54  49  82 N5        30.08S
MONROE         CLOUDY    62  59  91 CALM      30.05S
MT. CLEMENS    CLEAR     56  53  87 N8        30.05S
6HR MIN TEMP:  56; 6HR MAX TEMP:  62; 6HR PCP: TRACE;

PONTIAC        CLOUDY    59  54  83 NE7       30.06S
6HR MIN TEMP:  59; 6HR MAX TEMP:  63;

PORT HOPE        N/A     59  53  80 VRB5      30.07R
6HR MIN TEMP:  59; 6HR MAX TEMP:  62;

PORT HURON     CLEAR     54  52  94 NW5       30.06F
TRI CITIES     CLOUDY    58  50  75 N7        30.10S
6HR MIN TEMP:  58; 6HR MAX TEMP:  67;

MIDLAND        FAIR      49  48  95 CALM      30.10R
TROY           CLOUDY    62  55  77 N6        30.08S
SAGINAW HB     CLOUDY    61  59  94 CALM      30.09R
$$
MIZ043>046-050>051-056>058-064>065-071>073-077>080-080700-
SOUTHWEST LOWER MICHIGAN

CITY           SKY/WX    TMP DP  RH WIND       PRES   REMARKS
BATTLE CREEK   PTCLDY    57  51  80 NE7       30.09R
6HR MIN TEMP:  56; 6HR MAX TEMP:  68;

BENTON HARBOR  MOCLDY    54  50  86 NE3       30.09R
6HR MIN TEMP:  53; 6HR MAX TEMP:  61;

BIG RAPIDS     CLEAR     49  47  90 CALM      30.11S
6HR MIN TEMP:  49; 6HR MAX TEMP:  64;

COLDWATER      PTCLDY    56  53  91 CALM      30.08R
6HR MIN TEMP:  56; 6HR MAX TEMP:  65;

FREMONT        FAIR      52  49  91 N3        30.11S
HOLLAND        PTCLDY    56  49  77 VRB3      30.11R
6HR MIN TEMP:  56; 6HR MAX TEMP:  64;

GRAND RAPIDS   CLEAR     54  50  86 N5        30.10S
6HR MIN TEMP:  54; 6HR MAX TEMP:  69;

IONIA          FAIR      53  49  86 N6        30.09S
KALAMAZOO      MOCLDY    54  51  90 N5        30.08S
6HR MIN TEMP:  54; 6HR MAX TEMP:  69;

LUDINGTON      FOG       48  46  92 CALM      30.12S VSB 1
6HR MIN TEMP:  48; 6HR MAX TEMP:  61;

MARSHALL       PTCLDY    54  53  95 CALM      30.08S
MOUNT PLEASANT CLEAR     52  48  87 CALM      30.10S
6HR MIN TEMP:  52; 6HR MAX TEMP:  65;

MUSKEGON       CLEAR     56  48  74 N7        30.11S
6HR MIN TEMP:  55; 6HR MAX TEMP:  65;

SOUTH HAVEN    PTCLDY    53  49  87 NE6       30.09S
$$
MIZ016>042-080700-
NORTHERN LOWER MICHIGAN

CITY           SKY/WX    TMP DP  RH WIND       PRES   REMARKS
ALPENA         CLEAR     50  46  86 CALM      30.11R
6HR MIN TEMP:  50; 6HR MAX TEMP:  64;

BEAVER ISLAND  CLEAR     43  42  97 CALM      30.13R
6HR MIN TEMP:  43; 6HR MAX TEMP:  61;

BELLAIRE       CLEAR     46  45  95 CALM      30.13R
6HR MIN TEMP:  45; 6HR MAX TEMP:  61;

CADILLAC       CLEAR     48  46  95 CALM      30.11S
CHARLEVOIX     CLEAR     51  49  94 CALM      30.15R
FRANKFORT      CLEAR     49  44  81 CALM      30.12S
GAYLORD        CLEAR     50  48  93 CALM      30.12R
6HR MIN TEMP:  48; 6HR MAX TEMP:  59;

GRAYLING       FOG       43  43  98 CALM      30.12S VSB 1
HARBOR SPRINGS CLEAR     49  47  92 CALM      30.12S
HOUGHTON LAKE  CLEAR     49  47  93 CALM      30.12R
6HR MIN TEMP:  49; 6HR MAX TEMP:  62;

MANISTEE       CLEAR    N/A N/A N/A E3        30.12S
OSCODA         CLEAR     49  48  95 NW5       30.09R
PELLSTON       CLEAR     45  43  93 NW3       30.12R
6HR MIN TEMP:  45; 6HR MAX TEMP:  63;

ROGERS CITY    CLEAR     53  48  82 W5        30.11S
TRAVERSE CITY  CLEAR     50  47  89 CALM      30.10S
6HR MIN TEMP:  50; 6HR MAX TEMP:  62;

$$
MIZ007>008-015-080700-
EASTERN UPPER MICHIGAN

CITY           SKY/WX    TMP DP  RH WIND       PRES   REMARKS
KINROSS        CLEAR     48  45  87 W6        30.10S
6HR MIN TEMP:  48; 6HR MAX TEMP:  57;

MACKINAC ISLAN CLEAR     51  46  82 N7        30.10S
6HR MIN TEMP:  51; 6HR MAX TEMP:  61;

NEWBERRY       CLEAR     42  42  97 CALM      30.11F
S. S. MARIE    CLEAR     49  43  80 W5        30.09S
6HR MIN TEMP:  49; 6HR MAX TEMP:  57;

MUNISING         N/A     47  43  86 S7        30.10S
6HR MIN TEMP:  47; 6HR MAX TEMP:  61;

$$
MIZ004>006-011>014-085-080700-
CENTRAL UPPER MICHIGAN

CITY           SKY/WX    TMP DP  RH WIND       PRES   REMARKS
MANISTIQUE     CLEAR     41  39  91 CALM      30.11R
ESCANABA       CLEAR     46  45  93 NW3       30.11S
6HR MIN TEMP:  46; 6HR MAX TEMP:  64;

MENOMINEE      CLEAR     50  46  87 CALM      30.12S
6HR MIN TEMP:  48; 6HR MAX TEMP:  68;

SAWYER-GWINN   CLEAR     45  42  89 CALM      30.11S
$$
MIZ001>003-009>011-084-080700-
WESTERN UPPER MICHIGAN

CITY           SKY/WX    TMP DP  RH WIND       PRES   REMARKS
IRON MOUNTAIN  CLEAR     46  43  89 CALM      30.12S
6HR MIN TEMP:  46; 6HR MAX TEMP:  67;

HOUGHTON       CLEAR     54  43  66 NW10      30.08F
6HR MIN TEMP:  51; 6HR MAX TEMP:  64;

COPPER HARBOR    N/A     58  41  53 W7        30.08S
6HR MIN TEMP:  55; 6HR MAX TEMP:  60;

IRONWOOD       CLEAR     45  45 100 CALM      30.09S
6HR MIN TEMP:  45; 6HR MAX TEMP:  66;

$$

ABBREVIATIONS USED IN REMARKS
   TC - TEMPERATURE IN CELSIUS
  WCI - WIND CHILL INDEX
   HX - HEAT INDEX
  VSB - VISIBILITY



USA.gov is the U.S. government's official web portal to all federal, state and local government web resources and services.